Zurück zum Katalog

STARLINK-36111

AktivKommunikationVLEO
NORAD 66950·PAYLOAD·🇺🇸 United States

Gestartet Dec 7, 2025 von Vandenberg Space Force Base

Loading…

Nächste Überflüge (nächste 24 Stunden)

TLE

AktuellSource: CelesTrak SupGP

Epoche: Sep 15, 2026, 04:08 UTC

1 66950C 25286AB  26258.17270833 -.00041126  00000+0 -12151-2 0  2588
2 66950  53.1583 194.2805 0001323  80.6462 306.8334 15.34409906    16

Verfolge STARLINK-36111 in Echtzeit mit AllMySat

Download on the App Store